Weather History for Great Bend, KS

Change the Weather History Date:

Thursday, January 30, 2014

  Actual Average Record
Temperature  
Mean Temperature 39 °F -  
Max Temperature 50 °F 46 °F 50 °F (2014)
Min Temperature 28 °F 21 °F 28 °F (2014)
Degree Days  
Heating Degree Days 26    
Moisture  
Dew Point 15 °F    
Average Humidity 42    
Maximum Humidity 52    
Minimum Humidity 30    
Precipitation  
Precipitation 0.00 in - - ()
Sea Level Pressure  
Sea Level Pressure 29.72 in    
Wind  
Wind Speed 18 mph (NE)    
Max Wind Speed 29 mph    
Max Gust Speed 36 mph    
Visibility 10 miles    
Events      
Averages and records for this station are not official NWS values.
T = Trace of Precipitation, MM = Missing Value Source: NWS Daily Summary

Daily Weather History Graph

Daily Weather History Graph

Search for Another Location

Airport:

Trip Planner

Search our weather history database for the weather conditions in past years. The results will help you decide how hot, cold, wet, or windy it might be!

Date:

Astronomy

Jan. 30, 2014 Rise Set
Actual Time 7:42 AM CST 5:55 PM CST
Civil Twilight 7:14 AM CST 6:23 PM CST
Nautical Twilight 6:42 AM CST 6:55 PM CST
Astronomical Twilight 6:11 AM CST 7:26 PM CST
Moon 7:09 AM CST (1/30) 6:08 PM CST (1/30)
Length of Visible Light 11h 09m
Length of Day
10h 13m
Waning Crescent, 0% of the Moon is Illuminated
Jan 30
Waning Crescent
Jan 30
New
Feb 6
First Quarter
Feb 14
Full
Feb 22
Last Quarter

Hourly Weather History & Observations

Time (CST) Temp. Windchill Dew Point Humidity Pressure Visibility Wind Dir Wind Speed Gust Speed Precip Events Conditions
12:15 AM 37.4 °F 25.9 °F 8.6 °F 30% 29.65 in 10.0 mi South 25.3 mph 31.1 mph N/A   Clear
12:35 AM 37.4 °F 25.9 °F 8.6 °F 30% 29.62 in 10.0 mi South 25.3 mph 35.7 mph N/A   Clear
12:55 AM 35.6 °F 24.0 °F 8.6 °F 33% 29.61 in 10.0 mi South 23.0 mph 31.1 mph N/A   Clear
1:15 AM 35.6 °F 24.0 °F 8.6 °F 33% 29.61 in 10.0 mi South 23.0 mph 29.9 mph N/A   Clear
1:35 AM 35.6 °F 22.7 °F 8.6 °F 33% 29.58 in 10.0 mi South 28.8 mph - N/A   Clear
1:55 AM 35.6 °F 23.4 °F 8.6 °F 33% 29.59 in 10.0 mi South 25.3 mph 31.1 mph N/A   Clear
2:15 AM 33.8 °F 21.0 °F 8.6 °F 35% 29.56 in 10.0 mi South 25.3 mph 31.1 mph N/A   Clear
2:35 AM 33.8 °F 22.2 °F 8.6 °F 35% 29.55 in 10.0 mi South 20.7 mph 26.5 mph N/A   Clear
2:55 AM 33.8 °F 21.9 °F 8.6 °F 35% 29.54 in 10.0 mi South 21.9 mph 26.5 mph N/A   Clear
3:15 AM 33.8 °F 22.5 °F 8.6 °F 35% 29.55 in 10.0 mi South 19.6 mph - N/A   Clear
3:35 AM 33.8 °F 22.2 °F 8.6 °F 35% 29.53 in 10.0 mi South 20.7 mph - N/A   Clear
3:55 AM 33.8 °F 21.9 °F 8.6 °F 35% 29.51 in 10.0 mi South 21.9 mph 27.6 mph N/A   Clear
4:15 AM 33.8 °F 21.9 °F 8.6 °F 35% 29.51 in 10.0 mi South 21.9 mph 28.8 mph N/A   Clear
4:35 AM 33.8 °F 23.5 °F 8.6 °F 35% 29.51 in 10.0 mi South 16.1 mph 24.2 mph N/A   Clear
4:55 AM 33.8 °F 22.8 °F 8.6 °F 35% 29.51 in 10.0 mi South 18.4 mph 24.2 mph N/A   Clear
5:15 AM 33.8 °F 23.2 °F 8.6 °F 35% 29.51 in 10.0 mi SSW 17.3 mph 25.3 mph N/A   Clear
5:35 AM 33.8 °F 23.9 °F 10.4 °F 38% 29.52 in 10.0 mi SSW 15.0 mph - N/A   Clear
5:55 AM 33.8 °F 24.8 °F 10.4 °F 38% 29.53 in 10.0 mi SSW 12.7 mph 17.3 mph N/A   Clear
6:15 AM 33.8 °F 23.9 °F 10.4 °F 38% 29.53 in 10.0 mi SSW 15.0 mph 20.7 mph N/A   Clear
6:35 AM 33.8 °F 25.3 °F 10.4 °F 38% 29.55 in 10.0 mi SSW 11.5 mph - N/A   Clear
6:55 AM 33.8 °F 25.3 °F 10.4 °F 38% 29.56 in 10.0 mi SSW 11.5 mph - N/A   Clear
7:15 AM 33.8 °F 25.8 °F 10.4 °F 38% 29.56 in 10.0 mi South 10.4 mph - N/A   Clear
7:35 AM 32.0 °F 23.6 °F 10.4 °F 41% 29.57 in 10.0 mi SSW 10.4 mph - N/A   Clear
7:55 AM 30.2 °F 21.3 °F 10.4 °F 44% 29.58 in 10.0 mi SSW 10.4 mph - N/A   Clear
8:15 AM 32.0 °F 23.6 °F 10.4 °F 41% 29.61 in 10.0 mi SW 10.4 mph - N/A   Partly Cloudy
8:35 AM 33.8 °F 26.4 °F 10.4 °F 38% 29.62 in 10.0 mi SW 9.2 mph - N/A   Partly Cloudy
8:55 AM 33.8 °F 24.8 °F 12.2 °F 41% 29.62 in 10.0 mi SW 12.7 mph - N/A   Clear
9:15 AM 33.8 °F 27.0 °F 12.2 °F 41% 29.64 in 10.0 mi WSW 8.1 mph - N/A   Clear
9:35 AM 37.4 °F 29.8 °F 14.0 °F 38% 29.64 in 10.0 mi WSW 11.5 mph - N/A   Clear
9:55 AM 39.2 °F 33.6 °F 15.8 °F 39% 29.65 in 10.0 mi West 8.1 mph - N/A   Clear
10:15 AM 42.8 °F 38.0 °F 17.6 °F 36% 29.67 in 10.0 mi West 8.1 mph - N/A   Clear
10:35 AM 44.6 °F 41.4 °F 19.4 °F 37% 29.67 in 10.0 mi NW 5.8 mph - N/A   Clear
10:55 AM 46.4 °F 41.9 °F 21.2 °F 37% 29.69 in 10.0 mi NNW 9.2 mph - N/A   Clear
11:15 AM 48.2 °F - 26.6 °F 43% 29.72 in 10.0 mi North 13.8 mph 18.4 mph N/A   Clear
11:35 AM 50.0 °F - 26.6 °F 40% 29.72 in 10.0 mi North 19.6 mph - N/A   Partly Cloudy
11:55 AM 50.0 °F - 28.4 °F 43% 29.73 in 10.0 mi NNE 26.5 mph - N/A   Partly Cloudy
12:15 PM 48.2 °F - 28.4 °F 46% 29.74 in 10.0 mi North 20.7 mph - N/A   Mostly Cloudy
12:35 PM 48.2 °F - 28.4 °F 46% 29.74 in 10.0 mi North 23.0 mph 28.8 mph N/A   Mostly Cloudy
12:55 PM 46.4 °F 38.1 °F 24.8 °F 43% 29.75 in 10.0 mi North 24.2 mph - N/A   Overcast
1:15 PM 44.6 °F 35.7 °F 23.0 °F 43% 29.76 in 10.0 mi North 24.2 mph 28.8 mph N/A   Overcast
1:35 PM 42.8 °F 33.5 °F 21.2 °F 42% 29.75 in 10.0 mi North 23.0 mph 28.8 mph N/A   Overcast
1:55 PM 41.0 °F 31.6 °F 21.2 °F 45% 29.76 in 10.0 mi North 20.7 mph - N/A   Overcast
2:15 PM 41.0 °F 32.2 °F 21.2 °F 45% 29.77 in 10.0 mi NNE 18.4 mph 25.3 mph N/A   Overcast
2:35 PM 41.0 °F 31.6 °F 19.4 °F 42% 29.77 in 10.0 mi NNE 20.7 mph 24.2 mph N/A   Overcast
2:55 PM 41.0 °F 32.2 °F 19.4 °F 42% 29.78 in 10.0 mi NNE 18.4 mph 21.9 mph N/A   Overcast
3:15 PM 39.2 °F 31.2 °F 19.4 °F 45% 29.79 in 10.0 mi NNE 13.8 mph - N/A   Mostly Cloudy
3:35 PM 39.2 °F 31.6 °F 19.4 °F 45% 29.80 in 10.0 mi NNE 12.7 mph - N/A   Mostly Cloudy
3:55 PM 39.2 °F 31.2 °F 19.4 °F 45% 29.82 in 10.0 mi NE 13.8 mph - N/A   Mostly Cloudy
4:15 PM 39.2 °F 31.6 °F 19.4 °F 45% 29.81 in 10.0 mi NE 12.7 mph - N/A   Overcast
4:35 PM 37.4 °F 29.8 °F 19.4 °F 48% 29.84 in 10.0 mi NE 11.5 mph - N/A   Overcast
4:55 PM 37.4 °F 30.3 °F 19.4 °F 48% 29.84 in 10.0 mi NNE 10.4 mph - N/A   Overcast
5:15 PM 37.4 °F 30.3 °F 17.6 °F 45% 29.85 in 10.0 mi NNE 10.4 mph - N/A   Overcast
5:35 PM 35.6 °F 27.5 °F 17.6 °F 48% 29.85 in 10.0 mi NNE 11.5 mph - N/A   Overcast
5:55 PM 35.6 °F 27.5 °F 17.6 °F 48% 29.86 in 10.0 mi NE 11.5 mph - N/A   Overcast
6:15 PM 35.6 °F 28.0 °F 17.6 °F 48% 29.86 in 10.0 mi NE 10.4 mph - N/A   Overcast
6:35 PM 35.6 °F 28.6 °F 17.6 °F 48% 29.86 in 10.0 mi NE 9.2 mph - N/A   Overcast
6:55 PM 35.6 °F 29.2 °F 17.6 °F 48% 29.88 in 10.0 mi NNE 8.1 mph - N/A   Overcast
7:15 PM 35.6 °F 28.6 °F 17.6 °F 48% 29.89 in 10.0 mi NE 9.2 mph - N/A   Overcast
7:35 PM 35.6 °F 28.6 °F 17.6 °F 48% 29.90 in 10.0 mi NE 9.2 mph - N/A   Overcast
7:55 PM 33.8 °F 26.4 °F 17.6 °F 52% 29.90 in 10.0 mi NNE 9.2 mph - N/A   Overcast
8:15 PM 33.8 °F 23.9 °F 15.8 °F 48% 29.91 in 10.0 mi NNE 15.0 mph - N/A   Overcast
8:35 PM 33.8 °F 24.8 °F 15.8 °F 48% 29.90 in 10.0 mi NE 12.7 mph - N/A   Overcast
8:55 PM 32.0 °F 21.2 °F 15.8 °F 51% 29.92 in 10.0 mi NE 16.1 mph 21.9 mph N/A   Overcast
9:15 PM 32.0 °F 20.5 °F 14.0 °F 48% 29.91 in 10.0 mi NE 18.4 mph - N/A   Overcast
9:35 PM 30.2 °F 18.9 °F 14.0 °F 51% 29.92 in 10.0 mi NE 16.1 mph - N/A   Overcast
9:55 PM 30.2 °F 19.3 °F 14.0 °F 51% 29.92 in 10.0 mi NE 15.0 mph - N/A   Overcast
10:15 PM 30.2 °F 18.9 °F 14.0 °F 51% 29.93 in 10.0 mi NE 16.1 mph - N/A   Overcast
10:35 PM 30.2 °F 19.3 °F 14.0 °F 51% 29.93 in 10.0 mi NE 15.0 mph 20.7 mph N/A   Overcast
10:55 PM 30.2 °F 19.3 °F 12.2 °F 47% 29.93 in 10.0 mi NE 15.0 mph 19.6 mph N/A   Overcast
11:15 PM 28.4 °F 18.0 °F 12.2 °F 51% 29.92 in 10.0 mi NE 12.7 mph - N/A   Mostly Cloudy
11:35 PM 28.4 °F 16.6 °F 12.2 °F 51% 29.92 in 10.0 mi NE 16.1 mph 20.7 mph N/A   Mostly Cloudy
11:55 PM 28.4 °F 18.0 °F 12.2 °F 51% 29.91 in 10.0 mi ENE 12.7 mph 18.4 mph N/A   Mostly Cloudy